SCP
0 0 -0 -0 -0 0 0 0 0 0 0 0 0 0 0 0 0 0 0 0 0 0 0 0 0 0 0 0 0 0 0 0 0 0 0 0 0 0
-0 -0 -0 -0 0 0 0 0 0 0 0 0 0 0 0 0 0 0 0 0 0 0 0 0 0 0 0 0 0 0 0 0 0 0 0 0 0 0
0 0 0 0 0 0 0 0 0 0 0 0 0 0 0 0 0 0 0 0 0 0 0 0 0 -0 -0 0 0 0 0 0 0 0 0 0 0 0
0 0 0 0 0 0 0 0 0 0 0 0 0 0 0 0 0 0 0 0 0 0 0 0 0 0 0 0 0 0 0 0 0 0 0 0 0 0
0 0 0 0 0 0 0 0 0 0 0 0 0 0 0 0 0 0 0 0 0 0 0 0 0 0 0 0 0 0 0 0 0 0 0 0 0 0
0 0 0 0 0 0 0 0 0 0 0 0 0 0 0 0 0 0 0 0 0 0 0 0 0 0 0 0 0 0 0 0 0 0 0 0 0 0
0 0 0 0 0 0 0 0 0 0 0 0 0 0 0 0 0 0 0 0 0 0 0 0 0 0 0 0 0 0 0 0 0 0 0 0 0 0
0 0 0 0 0 0 0 0 0 0 0 0 0 0 0 0 0 0 0 0 0 0 0 0 0 0 0 0 0 0 0 0 0 0 0 0 0 0
0 0 0 0 0 0 0 0 0 0 0 0 0 0 0 0 0 0 0 0 0 0 0 0 0 0 0 0 0 0 0 0 0 0 0 0 0 0
0 0 0 0 0 0 0 0 0 0 0 0 0 0 0 0 0 0 0 0 0 0 0 0 0 0 0 0 0 0 0 0 0 0 0 0 0 0
0 0 0 0 0 0 0 0 0 0 0 0 0 0 0 0 0 0 0 0 0 0 0 0 0 0 0 0 0 0 0 0 0 0 0 0 0 0
0 0 0 0 0 0 0 0 0 0 0 0 0 0 0 0 0 0 0 0 0 0 0 0 0 0 0 0 0 0 0 0 0 0 0 0 0 0
0 0 0 0 0 0 0 0 0 0 0 0 0 0 0 0 0 0 0 0 0 0 0 0 0 0 0 0 0 0 0 0 0 0 0 0 0 0
0 0 0 0 0 0 0 0 0 0 0 0 0 0 0 0 0 0 0 0 0 0 0 0 0 0 0 0 0 0 0 0 0 0 0 0 0 0
0 0 0 0 0 0 0 0 0 0 0 0 0 0 0 0 0 0 0 0 0 0 0 0 0 0 0 0 0 0 0 0 0 0 0 0 0 0
0 0 0 0 0 0 0 0 0 0 0 0 0 0 0 0 0 0 0 0 0 0 0 0 0 0 0 0 0 0 0 0 0 0 0 0 0 0
0 0 0 0 0 0 0 0 0 0 0 0 0 0 0 0 0 0 0 0 0 0 0 0 0 0 0 0 0 0 0 0 0 0 0 0 0 0
0 0 0 0 0 0 0 0 0 0 0 0 0 0 0 0 0 0 0 0 0 0 0 0 0 0 0 0 0 0 0 0 0 0 0 0 0 0
0 0 0 0 0 0 0 0 0 0 0 0 0 0 0 0 0 0 0 0 0 0 0 0 0 0 0 0 0 0 0 0 0 0 0 0 0 0
0 0 0 0 0 0 0 0 0 0 0 0 0 0 0 0 0 0 0 0 0 0 0 0 0 0 0 0 0 0 0 0 0 0 0 0 0 0
0 0 0 0 0 0 0 0 0 0 0 0 0 0 0 0 0 0 0 0 0 0 0 0 0 0 0 0 0 0 0 0 0 0 0 0 0 0
0 0 0 0 0 0 0 0 0 0 0 0 0 0 0 0 0 0 0 0 0 0 0 0 0 0 0 0 0 0 0 0 0 0 0 0 0 0
0 0 0 0 0 0 0 0 0 0 0 0 0 0 0 0 0 0 0 0 0 0 0 0 0 0 0 0 0 0 0 0 0 0 0 0 0 0
Wind_Speed
2 2 2 1 1 1 2 3 4 1 2 4 2 2 2 3 5 5 5 9 11 10 10 10 10 10 9 9 9 9 9 9 9 9 9 10 11 12
3 3 2 2 1 1 1 2 3 4 3 3 3 3 2 3 6 5 6 10 12 12 12 12 12 12 12 11 11 11 11 11 11 10 10 10 10 10
4 4 5 4 3 2 1 2 2 3 3 4 3 2 2 3 3 4 5 6 6 12 13 14 14 14 13 13 13 12 12 12 12 12 11 11 11 11
6 5 6 4 5 4 3 3 3 3 4 5 3 3 4 4 5 5 5 6 6 11 14 15 15 15 15 15 14 14 14 13 13 13 13 12 12 12
7 7 7 6 6 4 5 4 4 4 4 4 5 3 4 4 4 5 5 5 6 8 12 14 15 15 16 16 16 15 15 15 14 14 14 13 13 13
7 7 7 8 8 7 6 6 5 5 4 4 5 4 4 4 3 4 5 4 5 6 8 8 11 14 15 16 16 16 16 15 15 15 15 15 14 14
7 7 8 10 11 9 7 7 7 6 5 5 6 5 5 4 5 4 6 5 5 5 5 6 5 5 7 11 14 16 16 16 17 17 16 16 16 15
7 7 7 9 11 13 14 12 10 9 8 7 7 7 9 7 5 5 5 4 6 4 4 6 4 6 7 6 11 15 17 17 18 18 17 17 17 17
5 5 5 5 6 5 8 11 11 14 14 10 10 11 10 8 6 7 7 7 9 5 3 6 5 7 7 8 14 16 17 17 18 18 18 18 18 18
2 3 3 3 3 3 4 5 6 7 9 9 9 11 10 8 8 10 10 9 7 5 5 7 6 7 7 7 13 17 18 18 18 18 18 18 18 18
2 2 2 2 5 5 3 4 6 7 8 9 10 12 14 14 11 6 6 6 9 8 6 6 7 7 7 8 10 16 18 19 19 19 19 18 19 17
3 3 4 4 6 6 3 4 7 8 7 9 9 9 9 11 13 10 9 9 9 7 6 6 7 6 6 6 8 8 10 15 18 19 19 19 18 10
2 2 3 6 8 9 7 5 9 9 7 7 8 8 7 7 8 8 9 9 11 10 6 5 6 6 7 6 5 6 7 7 8 10 15 18 18 13
2 3 4 9 11 12 9 10 13 11 6 5 6 7 7 8 8 8 9 10 12 13 10 9 8 8 8 9 7 5 6 6 7 8 7 11 14 16
2 6 9 11 11 8 10 13 11 6 5 5 6 7 7 8 7 7 8 9 10 11 11 10 10 9 9 10 9 7 6 5 6 7 7 7 7 6
4 7 9 10 8 8 9 7 5 5 5 6 7 7 6 6 7 6 7 7 7 8 8 10 11 11 10 11 10 9 8 6 6 7 7 7 6 7
4 3 3 4 5 5 5 6 5 5 5 5 5 6 6 6 7 6 6 6 7 8 8 7 8 9 11 10 10 11 9 9 8 7 6 8 8 8
3 3 4 4 5 5 6 6 6 5 5 6 6 6 7 7 8 7 6 7 8 8 8 7 6 6 6 8 12 11 10 10 9 8 8 9 10 8
2 3 4 5 5 5 6 6 7 7 6 6 7 7 7 8 8 8 7 7 8 8 8 7 6 7 10 11 8 12 11 9 8 8 9 10 10 9
3 4 5 5 5 6 6 6 7 7 7 7 7 7 7 8 9 9 8 9 9 9 9 7 7 8 10 11 9 7 13 11 9 10 9 8 8 9
5 5 5 5 6 6 6 6 7 8 8 8 7 8 8 8 9 9 9 11 10 9 10 9 9 11 8 6 7 7 7 13 14 9 8 7 6 5
5 6 6 6 6 6 6 7 7 8 8 8 8 8 8 8 10 11 10 10 9 9 11 9 8 6 5 7 10 10 8 7 10 16 15 11 7 7
6 6 7 7 7 6 7 8 10 9 8 8 8 8 9 9 10 10 10 10 10 10 10 9 7 6 6 7 8 8 9 8 5 6 8 13 17 17
Wind_Direction
199 199 194 219 193 176 164 154 150 181 284 287 293 279 241 227 224 208 215 226 227 230 236 242 246 248 249 249 248 248 249 250 252 254 257 259 257 253
203 206 217 223 224 190 176 174 161 165 222 264 262 268 251 237 227 219 228 235 236 237 239 243 246 247 248 248 247 246 245 247 248 249 250 253 254 254
215 209 223 219 219 220 199 185 181 167 211 264 262 267 254 254 254 239 240 237 242 242 243 245 246 247 247 246 246 245 245 246 246 246 247 248 250 252
220 217 226 224 224 224 217 221 216 200 202 249 268 264 254 248 247 248 246 240 236 245 244 246 246 246 246 244 243 242 243 244 244 245 245 245 246 248
217 218 225 220 228 226 223 226 229 228 210 230 259 254 259 257 262 265 258 255 252 250 247 247 246 245 244 242 242 241 241 242 243 243 243 243 244 244
221 220 222 218 223 223 226 226 226 231 229 237 256 259 257 254 242 257 273 260 257 257 255 251 247 247 246 243 242 242 242 241 241 241 242 242 242 242
231 229 229 226 224 222 225 222 220 228 231 238 252 261 259 254 246 240 256 266 264 246 254 256 249 249 248 246 245 244 243 242 240 240 239 239 239 240
235 241 245 242 241 237 237 232 221 225 233 236 243 245 254 245 245 242 247 257 270 246 222 254 233 245 245 238 242 242 242 242 241 240 239 237 236 236
238 246 258 262 253 252 253 252 246 242 237 237 245 248 252 244 236 244 241 238 248 241 208 256 244 247 246 245 241 241 242 243 243 242 240 238 236 236
264 264 264 288 317 305 286 280 272 265 257 250 249 255 255 251 238 244 250 253 253 246 212 248 249 247 251 244 245 242 243 244 243 242 241 239 237 236
359 12 16 7 358 2 341 311 301 294 288 281 271 267 266 263 257 258 255 253 260 254 217 232 250 255 252 249 248 243 242 243 243 242 240 239 238 236
5 5 25 19 0 357 336 306 295 293 300 303 295 286 275 268 259 245 245 252 259 260 226 223 245 243 261 249 244 243 243 244 242 241 240 238 236 231
347 327 318 331 328 321 309 273 269 280 285 281 282 281 276 268 261 251 240 240 249 252 232 217 240 236 240 256 255 243 236 240 239 241 239 237 234 217
313 303 304 317 317 312 303 288 287 288 276 273 274 274 274 272 268 261 254 250 248 252 250 232 238 239 245 253 254 250 240 236 232 236 234 235 234 225
296 304 309 311 312 306 299 300 302 292 281 276 275 273 269 270 274 274 271 265 262 258 256 242 240 243 239 247 251 243 247 243 227 232 234 229 227 213
326 315 315 313 309 300 302 305 298 286 283 279 280 279 279 278 276 273 275 275 275 275 261 247 241 239 245 247 246 247 238 236 230 229 231 235 229 217
323 325 327 327 325 320 315 308 305 307 302 294 294 298 295 290 286 280 272 274 271 275 278 268 249 241 240 242 249 247 243 242 237 231 225 238 237 227
350 325 315 312 310 311 312 311 307 305 302 303 300 296 295 294 292 288 279 274 273 272 272 271 270 269 264 251 230 242 243 242 238 229 223 235 245 235
346 307 303 303 302 302 303 304 304 301 297 295 295 295 295 294 290 288 284 279 276 274 271 266 257 253 261 267 251 219 232 241 236 232 227 227 238 239
321 308 307 305 303 303 304 303 302 303 300 295 294 294 293 291 290 287 284 280 280 279 277 268 255 247 250 260 266 250 224 230 235 236 233 231 238 245
321 315 309 308 307 305 305 304 303 302 300 298 294 293 294 291 287 285 284 283 280 278 278 274 264 257 256 255 260 259 244 226 225 227 221 220 227 229
326 321 317 313 311 310 310 308 306 305 306 304 301 298 296 294 290 288 284 282 280 278 278 278 275 268 253 252 258 262 261 252 237 235 228 213 203 213
323 320 317 315 314 313 312 310 308 305 304 302 300 299 298 295 293 290 286 281 280 279 279 279 276 267 260 258 261 261 259 254 243 236 240 233 230 237